Pereira, Colombia

5:18 PM -05 on August 20, 2017 (GMT -0500)
Matecana

Weather History for SKPE - February, 2013

Change the Weather History Date:

Friday, February 15, 2013

  Actual Average Record
Temperature  
Mean Temperature 70 °F -  
Max Temperature 81 °F 82 °F 89 °F (2016)
Min Temperature 60 °F 62 °F 59 °F (1999)
Cooling Degree Days 6    
Growing Degree Days 20 (Base 50)    
Moisture  
Dew Point 63 °F    
Average Humidity 81    
Maximum Humidity 100    
Minimum Humidity 50    
Precipitation  
Precipitation 0.12 in 0.19 in - ()
Sea Level Pressure  
Sea Level Pressure 30.08 in    
Wind  
Wind Speed 4 mph ()    
Max Wind Speed 12 mph    
Max Gust Speed -    
Visibility 4.9 miles    
Events Fog , Rain , Thunderstorm    
Averages and records for this station are not official NWS values.
T = Trace of Precipitation, MM = Missing Value Source: Averaged Metar Reports

Daily Weather History Graph

Daily Weather History Graph

Search for Another Location

Airport or City:

Trip Planner

Search our weather history database for the weather conditions in past years. The results will help you decide how hot, cold, wet, or windy it might be!

Date:

Astronomy

Feb. 15, 2013 Rise Set
Actual Time 6:17 AM -05 6:16 PM -05
Civil Twilight 5:56 AM -05 6:37 PM -05
Nautical Twilight 5:32 AM -05 7:02 PM -05
Astronomical Twilight 5:07 AM -05 7:26 PM -05
Moon 10:14 AM -05 (2/15) 10:47 PM -05 (2/15)
Length of Visible Light 12h 40m
Length of Day
11h 58m
Waxing Crescent, 30% of the Moon is Illuminated
Feb 15
Waxing Crescent
Feb 17
First Quarter
Feb 25
Full
Mar 4
Last Quarter
Mar 11
New

Hourly Weather History & Observations

Time (-05) Temp. Heat Index Dew Point Humidity Pressure Visibility Wind Dir Wind Speed Gust Speed Precip Events Conditions
12:00 AM 66.2 °F - 60.8 °F 83% 30.13 in 6.2 mi ESE 4.6 mph - N/A   Scattered Clouds
1:00 AM 65 °F - 61 °F 84%  in 7 mi ESE 4.5 mph - -   Haze
1:00 AM 64.4 °F - 60.8 °F 88% 30.12 in 6.2 mi East 6.9 mph - N/A   Scattered Clouds
5:00 AM 64.4 °F - 64.4 °F 100% 30.09 in 1.6 mi Variable 2.3 mph - N/A Rain Rain
6:00 AM 66.2 °F - 64.4 °F 94% 30.11 in 5.6 mi Variable 2.3 mph - N/A   Mostly Cloudy
7:00 AM 62 °F - 58 °F 84%  in 4 mi East 4.5 mph - - Fog Light Fog
7:00 AM 62.6 °F - 59.0 °F 88% 30.12 in 4.3 mi East 3.5 mph - N/A Fog Fog
8:00 AM 64.4 °F - 62.6 °F 94% 30.17 in 1.6 mi Calm Calm - N/A Fog Light Drizzle
9:00 AM 64.4 °F - 62.6 °F 94% 30.19 in 0.9 mi Variable 2.3 mph - N/A Fog , Rain Rain
10:00 AM 72 °F - 64 °F 68%  in 6 mi WNW 2.2 mph - -   Haze
10:00 AM 66.2 °F - 64.4 °F 94% 30.20 in 1.6 mi Calm Calm - N/A Fog Drizzle
11:00 AM 68.0 °F - 64.4 °F 88% 30.15 in 0.9 mi Variable 2.3 mph - N/A Fog Patches of Fog
12:00 PM 66.2 °F - 64.4 °F 94% 30.14 in 1.2 mi West 3.5 mph - N/A Fog Light Drizzle
1:00 PM 79 °F - 64 °F 50%  in 4 mi West 4.5 mph - -   Haze
1:00 PM 75.2 °F - 66.2 °F 73% 30.07 in 6.2 mi Variable 2.3 mph - N/A   Scattered Clouds
2:00 PM 80.6 °F 82.3 °F 64.4 °F 58% 30.01 in 6.2 mi WSW 6.9 mph - N/A   Scattered Clouds
3:00 PM 78.8 °F - 64.4 °F 61% 29.99 in 6.2 mi Variable 2.3 mph - N/A Thunderstorm Thunderstorm
4:00 PM 71 °F - 66 °F 81%  in 6 mi East 6.7 mph - - Rain Light Drizzle
4:00 PM 69.8 °F - 66.2 °F 88% 29.98 in 6.2 mi East 11.5 mph - N/A   Light Drizzle
5:00 PM 71.6 °F - 64.4 °F 78% 29.97 in 6.2 mi East 9.2 mph - N/A   Mostly Cloudy
6:00 PM 69.8 °F - 64.4 °F 83% 29.98 in 6.2 mi East 8.1 mph - N/A   Mostly Cloudy
7:00 PM 72 °F - 62 °F 64%  in 6 mi East 4.5 mph - -   Haze
7:00 PM 71.6 °F - 62.6 °F 73% 30.00 in 6.2 mi East 9.2 mph - N/A   Mostly Cloudy
8:00 PM 69.8 °F - 62.6 °F 78% 30.03 in 6.2 mi East 9.2 mph - N/A   Partly Cloudy
9:00 PM 68.0 °F - 60.8 °F 78% 30.06 in 6.2 mi East 9.2 mph - N/A   Partly Cloudy
10:00 PM 65 °F - 60 °F 79%  in 6 mi East 8.9 mph - -   Haze
10:00 PM 66.2 °F - 60.8 °F 83% 30.07 in 6.2 mi East 9.2 mph - N/A   Partly Cloudy
11:00 PM 66.2 °F - 60.8 °F 83% 30.08 in 6.2 mi ESE 9.2 mph - N/A   Partly Cloudy